Location: Elk Horn Observatory
(36.6768°N, 80.8309°W)
Time: 01:23:21
(UTC-04:00)

Tiangong 2 - Pass Details

Date: 20 February 2019
Orbit: 380 x 390 km, 42.8° (Epoch: 22 March)

Event Time Altitude Azimuth Distance (km) Brightness Sun altitude
Rises 19:23:48 0° 290° (WNW) 2,251 6.3 -15.7°
Reaches altitude 10° 19:25:57 10° 282° (WNW) 1,394 5.1 -16.2°
Maximum altitude 19:28:55 39° 212° (SSW) 584 2.2 -16.7°
Enters shadow 19:30:18 24° 158° (SSE) 832 2.5 -17.0°
